Home   Weather   Scarborough   Past weeks
Flag for Trinidad and Tobago

Past Weather in Scarborough, Trinidad and Tobago — Yesterday and Last 2 Weeks

Now
79 °F

Passing clouds.


Feels Like: 81 °F
Forecast: N/A
Wind: 3 mph from Northeast

Location: Crown Pt./ Scarborou

Current Time: Dec 8, 2019 at 7:35:16 pm

Latest Report: Dec 8, 2019 at 7:00 pm


Visibility: N/A

Pressure: 29.89 "Hg

Humidity: 74%

Dew Point: 70 °F

Location of ScarboroughLocation

Past Weather in Scarborough — Graph

°F

Scarborough Temperature Yesterday

Maximum temperature yesterday: 88 °F (at 12:00 pm)
Minimum temperature yesterday: 77 °F (at 2:00 am)
Average temperature yesterday: 82 °F

High & Low Weather Summary for the Past Weeks

 TemperatureHumidityPressure
High88 °F (Nov 24, 11:00 am)94% (Nov 25, 7:10 am)29.98 "Hg (Nov 25, 7:10 am)
Low77 °F (Nov 24, 5:00 am)62% (Nov 29, 3:00 pm)29.80 "Hg (Nov 24, 3:00 am)
Average82 °F79%29.87 "Hg
* Reported Nov 23 6:00 pm — Dec 8 6:00 pm, Scarborough. Weather by CustomWeather, © 2019

Note: Actual official high and low records may vary slightly from our data, if they occured in-between our weather recording intervals... More about our weather records

Scarborough Weather History for the Previous 24 Hours

Scroll right to see more
 ConditionsComfort  
Time TempWeatherWind HumidityBarometerVisibility
6:00 pm
Sun, Dec 8
81 °FPassing clouds.3 mph70%29.86 "HgN/A
5:00 pm84 °FPassing clouds.10 mph66%29.86 "HgN/A
4:00 pm86 °FPassing clouds.13 mph62%29.83 "HgN/A
3:00 pm86 °FScattered showers. Scattered clouds.12 mph66%29.83 "HgN/A
2:00 pm86 °FScattered showers. Scattered clouds.13 mph62%29.86 "HgN/A
1:00 pm88 °FScattered showers. Scattered clouds.14 mph62%29.86 "HgN/A
12:00 pm84 °FScattered showers. Scattered clouds.5 mph66%29.89 "HgN/A
11:00 am88 °FScattered clouds.14 mph62%29.92 "HgN/A
10:00 am86 °FPassing clouds.9 mph62%29.92 "HgN/A
9:00 am86 °FPassing clouds.8 mph62%29.92 "HgN/A
8:00 am84 °FPassing clouds.5 mph70%29.92 "HgN/A
7:00 am79 °FPassing clouds.5 mph74%29.89 "HgN/A
6:00 am77 °FPassing clouds.5 mph79%29.86 "HgN/A
5:00 am77 °FPassing clouds.3 mph79%29.86 "HgN/A
4:00 am77 °FPassing clouds.5 mph79%29.86 "HgN/A
3:00 am79 °FPassing clouds.5 mph74%29.86 "HgN/A
2:00 am79 °FPassing clouds.6 mph74%29.86 "HgN/A
1:00 am79 °FPassing clouds.5 mph74%29.89 "HgN/A
12:00 am79 °FPassing clouds.5 mph74%29.89 "HgN/A
11:00 pm
Sat, Dec 7
79 °FPassing clouds.3 mph74%29.89 "HgN/A
10:00 pm79 °FPassing clouds.5 mph74%29.92 "HgN/A
9:00 pm79 °FPassing clouds.5 mph74%29.92 "HgN/A
8:00 pm79 °FPassing clouds.5 mph74%29.89 "HgN/A
7:00 pm81 °FPassing clouds.5 mph74%29.89 "HgN/A
Weather by CustomWeather, © 2019

See weather overview

Advertising